Simultaneous Nadir Overpasses (SNOs) Predictions

Prediction of SNOs between AQUA and METOP-A Satellite Orbit:

Table of predicted SNOs for the next 14.0 days since TLE Epoch: 1/23/2016
Index Date (AQUA) Time (AQUA) Lat,Lon (AQUA) SZA (AQUA ) Date (METOP-A) Time (METOP-A) Lat,Lon (METOP-A) SZA (METOP-A ) Distance(km) Time Diff (sec)
1 01/25/2016 12:50:15 73.84, -18.38 92.95 01/25/2016 12:49:38 73.86, -18.39 92.98 2.63 37
2 01/25/2016 13:39:42 -73.91, 149.11 86.99 01/25/2016 13:40:18 -73.93, 149.10 86.97 2.40 36
3 01/28/2016 08:24:29 73.83, 48.08 92.23 01/28/2016 08:24:00 73.84, 47.98 92.26 3.35 29
4 01/28/2016 09:13:56 -73.90,-144.43 87.71 01/28/2016 09:14:40 -73.91,-144.52 87.70 3.32 44
5 01/31/2016 03:09:03 -73.13, -51.64 89.27 01/31/2016 03:07:58 -73.06, -54.71 89.18 99.59 65
6 01/31/2016 03:58:44 73.84, 114.49 91.49 01/31/2016 03:58:22 73.87, 114.45 91.53 3.39 22
7 01/31/2016 04:48:12 -73.96, -78.13 88.39 01/31/2016 04:49:02 -73.94, -78.04 88.42 3.16 50
8 02/02/2016 22:43:23 -73.42, 14.21 89.75 02/02/2016 22:42:14 -73.39, 12.42 89.68 57.00 69
9 02/02/2016 23:32:59 73.87,-179.13 90.73 02/02/2016 23:32:44 73.89,-179.08 90.75 2.52 15
10 02/03/2016 00:22:26 -73.93, -11.63 89.21 02/03/2016 00:23:25 -73.91, -11.69 89.24 2.83 59
11 02/05/2016 18:17:42 -73.72, 80.00 90.25 02/05/2016 18:16:29 -73.71, 79.56 90.24 13.72 73
12 02/05/2016 19:07:12 73.87,-112.68 89.90 02/05/2016 19:07:06 73.85,-112.75 89.89 2.73 6
13 02/05/2016 19:56:39 -73.93, 54.83 90.05 02/05/2016 19:57:46 -73.93, 54.77 90.06 1.88 67




NCC Satellite Simultaneous Nadir Overpasses (SNOs) Prediction Service
